HERMES 4

导读

HERMES 4是一颗计划于2025年3月15日发射的卫星,目前发射国家尚未公布。作为空间探测领域的潜在项目,该卫星延续了HERMES系列对空间物理环境的研究方向,有望聚焦太阳物理、辐射环境监测等科学任务,填补深空探测领域相关数据空白,为人类理解日地空间相互作用、保障深空探测活动安全提供关键支撑,其后续进展值得持续关注。

基本信息
目录编号:
63833
目录名称:
HERMES 4
国际标识:
2025-052BP
轨道中心:
EARTH
卫星名称:
HERMES 4
卫星全名:
HERMES 4
卫星状态:
在轨 (已飞行539 天)
发射日期:
2025-03-15 UTC
国别 :
意大利 (IT)
星等 :
--
轨道信息
数据来源 国际轨道数据
星历时间: 2026-09-05T06:57:38+0800
9小时前
查看轨道信息
半长轴: 6848.239km
偏心率: 0.0000842
轨道倾角: 97.376°
近地点辐角 309.231°
升交点赤经 141.412°
平近点角 50.886°
近地点: 469.525km
远地点: 470.679km
周期: 94.000分钟
每日圈数: 15.319141
详细信息
使用方式:
暂无
2D轨道图
3D轨道图
轨道高度分析图
轨道倾角分析图
轨道综合分析图
查看轨道综合分析图
交会数据列表
事件ID 空间交会对象 最接近时刻(TCA) 交会距离 交会风险概率(CRP) 交会风险指数(CRI) 操作
CDM_260906-144806-262506-383322
HERMES 4 (63833)
2026-09-06T
14:48:36+0000
0.276 km
中距离
5.742489E-4 高风险 0.9
CDM_260907-130104-779306-383321
HERMES 4 (63833)
2026-09-07T
13:01:05+0000
1.077 km
极远距离
1.213363E-5 中风险 0.57
CDM_260907-190905-358806-383321
HERMES 4 (63833)
2026-09-07T
19:09:18+0000
1.090 km
极远距离
1.034747E-5 中风险 0.55
CDM_260907-080606-383306-409221
HERMES 4 (63833)
OBJECT F (64092)
2026-09-07T
08:06:19+0000
1.382 km
极远距离
8.950962E-6 低风险 0.54
CDM_260830-023106-265006-383325
HERMES 4 (63833)
2026-08-30T
02:31:39+0000
1.790 km
极远距离
3.926789E-6 低风险 0.47
CDM_260907-012305-739906-383322
HERMES 4 (63833)
2026-09-07T
01:23:09+0000
2.528 km
极远距离
1.720605E-6 低风险 0.4
CDM_260907-102205-895206-383321
HERMES 4 (63833)
2026-09-07T
10:22:06+0000
2.662 km
极远距离
1.058045E-6 低风险 0.35